| time (UTC) | temp F | wind direction | speed MPH | gust MPH | rain 1hr in | rain 24hr in | rain mn in | humidity % | barometer mb |
| 20260831231515 | 76 | 238 | 2.0 | 7.0 | 0.00 | 0.00 | 0.00 | 34 | 1010.1 |
| 20260831230015 | 76 | 193 | 5.0 | 11.0 | 0.00 | 0.00 | 0.00 | 33 | 1010.2 |
| 20260831224514 | 76 | 282 | 2.0 | 7.0 | 0.00 | 0.00 | 0.00 | 33 | 1010.2 |
| 20260831223013 | 75 | 325 | 3.0 | 12.0 | 0.00 | 0.00 | 0.00 | 33 | 1010.4 |
| 20260831221523 | 76 | 194 | 3.0 | 7.0 | 0.00 | 0.00 | 0.00 | 34 | 1010.5 |
| 20260831220011 | 76 | 228 | 4.0 | 11.0 | 0.00 | 0.00 | 0.00 | 33 | 1010.4 |
| 20260831214529 | 76 | 248 | 4.0 | 11.0 | 0.00 | 0.00 | 0.00 | 33 | 1010.6 |
| 20260831213006 | 75 | 241 | 2.0 | 8.0 | 0.00 | 0.00 | 0.00 | 35 | 1010.6 |
| 20260831211505 | 75 | 340 | 4.0 | 9.0 | 0.00 | 0.00 | 0.00 | 34 | 1010.8 |
| 20260831210006 | 74 | 197 | 2.0 | 9.0 | 0.00 | 0.00 | 0.00 | 35 | 1010.7 |
| 20260831204504 | 74 | 302 | 5.0 | 11.0 | 0.00 | 0.00 | 0.00 | 35 | 1010.9 |
| 20260831203002 | 74 | 220 | 5.0 | 11.0 | 0.00 | 0.00 | 0.00 | 36 | 1011.1 |
| 20260831201505 | 74 | 248 | 5.0 | 11.0 | 0.00 | 0.00 | 0.00 | 36 | 1011.2 |
| 20260831200105 | 74 | 232 | 4.0 | 12.0 | 0.00 | 0.00 | 0.00 | 36 | 1011.1 |
| 20260831194557 | 73 | 228 | 5.0 | 9.0 | 0.00 | 0.00 | 0.00 | 37 | 1011.2 |
| 20260831193055 | 71 | 207 | 2.0 | 9.0 | 0.00 | 0.00 | 0.00 | 40 | 1011.4 |
| 20260831191554 | 72 | 296 | 3.0 | 10.0 | 0.00 | 0.00 | 0.00 | 41 | 1011.5 |
| 20260831190111 | 71 | 306 | 4.0 | 14.0 | 0.00 | 0.00 | 0.00 | 40 | 1011.9 |
| 20260831184555 | 71 | 325 | 5.0 | 12.0 | 0.00 | 0.00 | 0.00 | 40 | 1012.0 |
| 20260831183059 | 71 | 327 | 5.0 | 11.0 | 0.00 | 0.00 | 0.00 | 40 | 1012.2 |
| 20260831181550 | 70 | 293 | 5.0 | 11.0 | 0.00 | 0.00 | 0.00 | 42 | 1012.3 |
| 20260831180047 | 70 | 355 | 4.0 | 10.0 | 0.00 | 0.00 | 0.00 | 43 | 1012.5 |
| 20260831174545 | 69 | 306 | 6.0 | 15.0 | 0.00 | 0.00 | 0.00 | 44 | 1012.4 |
| 20260831173042 | 69 | 315 | 3.0 | 12.0 | 0.00 | 0.00 | 0.00 | 46 | 1012.4 |
| 20260831171543 | 68 | 332 | 5.0 | 17.0 | 0.00 | 0.00 | 0.00 | 46 | 1012.3 |
| 20260831170038 | 68 | 315 | 5.0 | 16.0 | 0.00 | 0.00 | 0.00 | 46 | 1012.4 |
| 20260831164538 | 68 | 333 | 6.0 | 12.0 | 0.00 | 0.00 | 0.00 | 47 | 1012.4 |
| 20260831163041 | 67 | 327 | 5.0 | 13.0 | 0.00 | 0.00 | 0.00 | 50 | 1012.3 |
| 20260831161533 | 65 | 308 | 5.0 | 14.0 | 0.00 | 0.00 | 0.00 | 53 | 1012.5 |
| 20260831160038 | 65 | 297 | 5.0 | 14.0 | 0.00 | 0.00 | 0.00 | 53 | 1012.3 |
| 20260831154533 | 65 | 333 | 6.0 | 14.0 | 0.00 | 0.00 | 0.00 | 51 | 1012.3 |
| 20260831153032 | 65 | 306 | 6.0 | 13.0 | 0.00 | 0.00 | 0.00 | 51 | 1012.4 |
| 20260831151525 | 64 | 305 | 4.0 | 13.0 | 0.00 | 0.00 | 0.00 | 50 | 1012.2 |
| 20260831150024 | 63 | 297 | 4.0 | 11.0 | 0.00 | 0.00 | 0.00 | 50 | 1012.1 |
| 20260831144521 | 61 | 302 | 5.0 | 11.0 | 0.00 | 0.00 | 0.00 | 53 | 1011.9 |
| 20260831143021 | 59 | 281 | 4.0 | 10.0 | 0.00 | 0.00 | 0.00 | 55 | 1011.8 |
| 20260831141508 | 58 | 288 | 5.0 | 12.0 | 0.00 | 0.00 | 0.00 | 57 | 1011.6 |
| 20260831140004 | 56 | 295 | 2.0 | 7.0 | 0.00 | 0.00 | 0.00 | 59 | 1011.4 |
| 20260831134505 | 56 | 277 | 3.0 | 9.0 | 0.00 | 0.00 | 0.00 | 59 | 1011.3 |
| 20260831133059 | 55 | 287 | 4.0 | 8.0 | 0.00 | 0.00 | 0.00 | 62 | 1011.0 |
| 20260831131600 | 53 | 287 | 5.0 | 12.0 | 0.00 | 0.00 | 0.00 | 64 | 1010.8 |
| 20260831124557 | 52 | 296 | 5.0 | 12.0 | 0.00 | 0.00 | 0.00 | 64 | 1010.4 |
| 20260831123051 | 53 | 290 | 5.0 | 12.0 | 0.00 | 0.00 | 0.00 | 63 | 1010.1 |
| 20260831121552 | 53 | 298 | 6.0 | 14.0 | 0.00 | 0.00 | 0.00 | 62 | 1010.0 |
| 20260831120056 | 53 | 303 | 7.0 | 14.0 | 0.00 | 0.00 | 0.00 | 63 | 1009.9 |
| 20260831114549 | 53 | 288 | 9.0 | 15.0 | 0.00 | 0.00 | 0.00 | 63 | 1010.0 |
| 20260831113107 | 54 | 260 | 6.0 | 14.0 | 0.00 | 0.00 | 0.00 | 62 | 1009.9 |
| 20260831111546 | 54 | 267 | 7.0 | 14.0 | 0.00 | 0.00 | 0.00 | 61 | 1009.7 |
| 20260831110046 | 54 | 282 | 8.0 | 17.0 | 0.00 | 0.00 | 0.00 | 62 | 1009.5 |
| 20260831104544 | 53 | 255 | 7.0 | 16.0 | 0.00 | 0.00 | 0.00 | 63 | 1009.5 |
| 20260831103048 | 52 | 302 | 8.0 | 14.0 | 0.00 | 0.00 | 0.00 | 65 | 1009.2 |
| 20260831101545 | 52 | 254 | 5.0 | 12.0 | 0.00 | 0.00 | 0.00 | 66 | 1009.2 |
| 20260831100040 | 51 | 284 | 5.0 | 12.0 | 0.00 | 0.00 | 0.00 | 67 | 1009.0 |
| 20260831094549 | 51 | 260 | 5.0 | 12.0 | 0.00 | 0.00 | 0.00 | 68 | 1008.9 |
| 20260831093035 | 51 | 231 | 4.0 | 8.0 | 0.00 | 0.00 | 0.00 | 68 | 1009.0 |
| 20260831091543 | 51 | 271 | 4.0 | 8.0 | 0.00 | 0.00 | 0.00 | 68 | 1009.1 |
| 20260831090038 | 51 | 256 | 4.0 | 12.0 | 0.00 | 0.00 | 0.00 | 67 | 1009.0 |
| 20260831084532 | 50 | 228 | 4.0 | 9.0 | 0.00 | 0.01 | 0.00 | 69 | 1008.8 |
| 20260831083024 | 51 | 239 | 4.0 | 9.0 | 0.00 | 0.01 | 0.00 | 68 | 1008.7 |
| 20260831081523 | 52 | 258 | 4.0 | 11.0 | 0.00 | 0.01 | 0.00 | 67 | 1008.4 |
| 20260831080030 | 52 | 257 | 6.0 | 14.0 | 0.00 | 0.01 | 0.00 | 67 | 1008.3 |
| 20260831074517 | 51 | 297 | 6.0 | 14.0 | 0.00 | 0.02 | 0.00 | 68 | 1008.2 |
| 20260831073015 | 52 | 263 | 4.0 | 11.0 | 0.00 | 0.02 | 0.00 | 67 | 1008.2 |
| 20260831071512 | 53 | 261 | 4.0 | 11.0 | 0.00 | 0.02 | 0.00 | 65 | 1008.2 |
| 20260831070012 | 53 | 261 | 5.0 | 11.0 | 0.00 | 0.02 | 0.00 | 64 | 1008.2 |
| 20260831064506 | 54 | 297 | 5.0 | 14.0 | 0.00 | 0.02 | 0.00 | 63 | 1008.2 |
| 20260831063004 | 55 | 286 | 6.0 | 14.0 | 0.00 | 0.02 | 0.00 | 61 | 1008.0 |
| 20260831061605 | 55 | 223 | 8.0 | 17.0 | 0.00 | 0.02 | 0.00 | 60 | 1008.1 |
| 20260831060057 | 55 | 277 | 5.0 | 12.0 | 0.00 | 0.02 | 0.00 | 60 | 1007.9 |
| 20260831054554 | 56 | 270 | 5.0 | 12.0 | 0.00 | 0.02 | 0.02 | 60 | 1007.9 |
| 20260831053053 | 56 | 265 | 4.0 | 14.0 | 0.00 | 0.02 | 0.02 | 59 | 1007.9 |
| 20260831051559 | 56 | 284 | 7.0 | 15.0 | 0.00 | 0.02 | 0.02 | 60 | 1007.9 |
| 20260831050050 | 56 | 284 | 4.0 | 14.0 | 0.00 | 0.02 | 0.02 | 60 | 1008.0 |
| 20260831044551 | 57 | 242 | 7.0 | 17.0 | 0.00 | 0.02 | 0.02 | 58 | 1008.2 |
| 20260831043046 | 58 | 261 | 7.0 | 16.0 | 0.00 | 0.02 | 0.02 | 54 | 1008.1 |
| 20260831041551 | 59 | 275 | 7.0 | 16.0 | 0.00 | 0.02 | 0.02 | 48 | 1007.5 |
| 20260831040046 | 60 | 290 | 6.0 | 15.0 | 0.00 | 0.02 | 0.02 | 48 | 1007.7 |
| 20260831034549 | 60 | 286 | 3.0 | 14.0 | 0.00 | 0.02 | 0.02 | 48 | 1007.9 |
| 20260831033044 | 60 | 323 | 7.0 | 17.0 | 0.00 | 0.02 | 0.02 | 47 | 1007.9 |
| 20260831031544 | 60 | 267 | 7.0 | 13.0 | 0.00 | 0.02 | 0.02 | 48 | 1007.7 |
| 20260831030044 | 60 | 236 | 7.0 | 15.0 | 0.00 | 0.02 | 0.02 | 48 | 1007.6 |
| 20260831024544 | 60 | 270 | 5.0 | 13.0 | 0.00 | 0.02 | 0.02 | 47 | 1007.4 |
| 20260831023042 | 60 | 330 | 8.0 | 19.0 | 0.00 | 0.02 | 0.02 | 46 | 1007.2 |
| 20260831021542 | 61 | 269 | 6.0 | 19.0 | 0.00 | 0.02 | 0.02 | 46 | 1007.0 |
| 20260831020047 | 60 | 239 | 7.0 | 16.0 | 0.00 | 0.02 | 0.02 | 48 | 1007.1 |
| 20260831014542 | 60 | 261 | 5.0 | 11.0 | 0.00 | 0.02 | 0.02 | 51 | 1006.8 |
| 20260831013046 | 61 | 266 | 6.0 | 13.0 | 0.00 | 0.02 | 0.02 | 49 | 1006.8 |
| 20260831011545 | 61 | 261 | 5.0 | 13.0 | 0.00 | 0.02 | 0.02 | 51 | 1007.0 |
| 20260831010043 | 62 | 323 | 8.0 | 17.0 | 0.00 | 0.02 | 0.02 | 49 | 1007.0 |
| 20260831004540 | 62 | 273 | 10.0 | 22.0 | 0.00 | 0.02 | 0.02 | 47 | 1007.1 |
| 20260831003041 | 63 | 263 | 10.0 | 18.0 | 0.00 | 0.02 | 0.02 | 45 | 1007.0 |
| 20260831001538 | 64 | 284 | 12.0 | 22.0 | 0.00 | 0.02 | 0.02 | 41 | 1006.8 |
| 20260831000038 | 64 | 288 | 10.0 | 23.0 | 0.00 | 0.02 | 0.02 | 39 | 1006.5 |
| 20260830234542 | 67 | 273 | 9.0 | 21.0 | 0.00 | 0.02 | 0.02 | 37 | 1006.4 |
| 20260830233037 | 67 | 241 | 10.0 | 22.0 | 0.00 | 0.02 | 0.02 | 37 | 1006.2 |